| time (UTC) | temp F | wind direction | speed knots | gust knots | rain 1hr in | rain 24hr in | rain mn in | humidity % | barometer mb |
| 20260509053038 | 53 | 195 | 2.6 | 4.3 | 0.00 | 0.23 | 0.00 | 93 | 1007.9 |
| 20260509051537 | 53 | 196 | 2.6 | 4.3 | 0.00 | 0.23 | 0.00 | 93 | 1007.8 |
| 20260509050044 | 53 | 207 | 1.7 | 5.2 | 0.00 | 0.23 | 0.00 | 93 | 1007.9 |
| 20260509044538 | 53 | 211 | 2.6 | 4.3 | 0.00 | 0.23 | 0.00 | 94 | 1008.0 |
| 20260509043038 | 53 | 202 | 2.6 | 4.3 | 0.00 | 0.23 | 0.00 | 94 | 1008.0 |
| 20260509041539 | 53 | 203 | 1.7 | 3.5 | 0.00 | 0.23 | 0.00 | 95 | 1008.0 |
| 20260509040042 | 52 | 199 | 0.0 | 1.7 | 0.00 | 0.23 | 0.00 | 94 | 1008.1 |
| 20260509034540 | 52 | 0 | 0.0 | 0.0 | 0.00 | 0.23 | 0.23 | 94 | 1008.1 |
| 20260509033039 | 53 | 0 | 0.0 | 0.9 | 0.00 | 0.23 | 0.23 | 94 | 1008.3 |
| 20260509031553 | 53 | 175 | 1.7 | 2.6 | 0.00 | 0.23 | 0.23 | 93 | 1008.3 |
| 20260509030039 | 53 | 0 | 0.0 | 1.7 | 0.00 | 0.23 | 0.23 | 94 | 1008.5 |
| 20260509024542 | 53 | 168 | 0.9 | 1.7 | 0.00 | 0.23 | 0.23 | 93 | 1008.4 |
| 20260509023039 | 53 | 198 | 0.9 | 1.7 | 0.00 | 0.23 | 0.23 | 92 | 1008.4 |
| 20260509021538 | 54 | 191 | 0.9 | 2.6 | 0.00 | 0.23 | 0.23 | 91 | 1008.3 |
| 20260509020043 | 54 | 194 | 0.9 | 2.6 | 0.00 | 0.23 | 0.23 | 91 | 1008.4 |
| 20260509014543 | 54 | 212 | 2.6 | 3.5 | 0.00 | 0.23 | 0.23 | 90 | 1008.3 |
| 20260509013038 | 54 | 210 | 1.7 | 5.2 | 0.00 | 0.23 | 0.23 | 89 | 1008.4 |
| 20260509011546 | 55 | 219 | 2.6 | 6.1 | 0.00 | 0.23 | 0.23 | 89 | 1008.2 |
| 20260509010046 | 55 | 198 | 3.5 | 6.1 | 0.00 | 0.23 | 0.23 | 88 | 1008.3 |
| 20260509004542 | 55 | 212 | 3.5 | 7.0 | 0.00 | 0.23 | 0.23 | 87 | 1008.2 |
| 20260509003045 | 56 | 195 | 4.3 | 7.0 | 0.00 | 0.23 | 0.23 | 87 | 1008.3 |
| 20260509001539 | 56 | 207 | 3.5 | 7.0 | 0.00 | 0.23 | 0.23 | 87 | 1008.3 |
| 20260509000043 | 56 | 212 | 3.5 | 8.7 | 0.00 | 0.23 | 0.23 | 86 | 1008.4 |
| 20260508234549 | 56 | 224 | 3.5 | 9.6 | 0.00 | 0.23 | 0.23 | 87 | 1008.4 |
| 20260508233043 | 56 | 229 | 4.3 | 7.0 | 0.00 | 0.23 | 0.23 | 87 | 1008.5 |
| 20260508231540 | 56 | 201 | 4.3 | 7.0 | 0.00 | 0.23 | 0.23 | 86 | 1008.5 |
| 20260508230048 | 57 | 222 | 3.5 | 6.1 | 0.00 | 0.23 | 0.23 | 85 | 1008.6 |
| 20260508224546 | 57 | 218 | 2.6 | 5.2 | 0.00 | 0.23 | 0.23 | 86 | 1008.6 |
| 20260508223037 | 57 | 227 | 2.6 | 7.0 | 0.01 | 0.23 | 0.23 | 87 | 1008.6 |
| 20260508221541 | 56 | 212 | 3.5 | 7.8 | 0.01 | 0.23 | 0.23 | 88 | 1008.6 |
| 20260508220109 | 56 | 213 | 3.5 | 7.0 | 0.01 | 0.23 | 0.23 | 87 | 1008.6 |
| 20260508214538 | 56 | 222 | 3.5 | 7.0 | 0.01 | 0.23 | 0.23 | 87 | 1008.6 |
| 20260508213039 | 56 | 246 | 5.2 | 8.7 | 0.01 | 0.22 | 0.22 | 85 | 1008.7 |
| 20260508211547 | 56 | 218 | 5.2 | 9.6 | 0.02 | 0.22 | 0.22 | 86 | 1008.9 |
| 20260508210042 | 56 | 189 | 4.3 | 8.7 | 0.04 | 0.22 | 0.22 | 89 | 1009.0 |
| 20260508204543 | 56 | 164 | 2.6 | 6.1 | 0.06 | 0.22 | 0.22 | 90 | 1009.1 |
| 20260508203038 | 56 | 198 | 2.6 | 6.1 | 0.06 | 0.21 | 0.21 | 88 | 1009.3 |
| 20260508201537 | 56 | 271 | 3.5 | 7.0 | 0.09 | 0.20 | 0.20 | 87 | 1009.5 |
| 20260508200038 | 56 | 256 | 3.5 | 5.2 | 0.13 | 0.18 | 0.18 | 89 | 1009.8 |
| 20260508194541 | 56 | 245 | 0.0 | 6.1 | 0.13 | 0.16 | 0.16 | 88 | 1009.9 |
| 20260508193045 | 55 | 266 | 2.6 | 9.6 | 0.11 | 0.14 | 0.14 | 87 | 1010.3 |
| 20260508191538 | 56 | 259 | 3.5 | 7.0 | 0.08 | 0.10 | 0.10 | 84 | 1010.3 |
| 20260508190042 | 58 | 262 | 3.5 | 7.0 | 0.03 | 0.05 | 0.05 | 78 | 1010.3 |
| 20260508184545 | 60 | 269 | 2.6 | 6.1 | 0.01 | 0.03 | 0.03 | 73 | 1009.9 |
| 20260508183046 | 61 | 275 | 6.1 | 13.0 | 0.01 | 0.03 | 0.03 | 68 | 1010.2 |
| 20260508181557 | 63 | 267 | 6.1 | 13.0 | 0.00 | 0.02 | 0.02 | 61 | 1010.0 |
| 20260508180047 | 63 | 235 | 3.5 | 10.4 | 0.00 | 0.02 | 0.02 | 60 | 1010.1 |
| 20260508174548 | 62 | 273 | 2.6 | 7.0 | 0.00 | 0.02 | 0.02 | 61 | 1010.4 |
| 20260508173037 | 62 | 224 | 6.1 | 10.4 | 0.00 | 0.02 | 0.02 | 61 | 1010.6 |
| 20260508171537 | 61 | 228 | 4.3 | 8.7 | 0.00 | 0.02 | 0.02 | 60 | 1010.9 |
| 20260508170041 | 61 | 250 | 6.1 | 11.3 | 0.00 | 0.02 | 0.02 | 58 | 1010.9 |
| 20260508164539 | 61 | 195 | 5.2 | 7.0 | 0.00 | 0.02 | 0.02 | 61 | 1011.3 |
| 20260508163040 | 60 | 222 | 3.5 | 7.0 | 0.00 | 0.02 | 0.02 | 61 | 1011.5 |
| 20260508161538 | 59 | 251 | 4.3 | 10.4 | 0.00 | 0.02 | 0.02 | 64 | 1011.7 |
| 20260508160038 | 59 | 220 | 6.1 | 9.6 | 0.00 | 0.02 | 0.02 | 63 | 1011.7 |
| 20260508154540 | 59 | 250 | 6.1 | 9.6 | 0.00 | 0.02 | 0.02 | 62 | 1011.8 |
| 20260508153041 | 59 | 229 | 4.3 | 11.3 | 0.00 | 0.02 | 0.02 | 60 | 1011.8 |
| 20260508151539 | 58 | 233 | 4.3 | 10.4 | 0.00 | 0.02 | 0.02 | 62 | 1012.0 |
| 20260508150038 | 56 | 217 | 5.2 | 7.8 | 0.00 | 0.02 | 0.02 | 70 | 1012.0 |
| 20260508144542 | 55 | 198 | 4.3 | 7.0 | 0.00 | 0.02 | 0.02 | 69 | 1012.3 |
| 20260508143040 | 54 | 244 | 2.6 | 5.2 | 0.01 | 0.02 | 0.02 | 71 | 1012.5 |
| 20260508141548 | 53 | 196 | 2.6 | 3.5 | 0.01 | 0.02 | 0.02 | 75 | 1012.4 |
| 20260508140040 | 53 | 219 | 1.7 | 4.3 | 0.01 | 0.02 | 0.02 | 76 | 1012.7 |
| 20260508134550 | 52 | 252 | 1.7 | 4.3 | 0.01 | 0.02 | 0.02 | 75 | 1012.8 |
| 20260508133043 | 53 | 243 | 2.6 | 8.7 | 0.00 | 0.01 | 0.01 | 74 | 1013.0 |
| 20260508131541 | 53 | 211 | 2.6 | 5.2 | 0.00 | 0.01 | 0.01 | 77 | 1012.3 |
| 20260508130040 | 51 | 193 | 2.6 | 4.3 | 0.00 | 0.01 | 0.01 | 80 | 1012.2 |
| 20260508124537 | 50 | 169 | 2.6 | 5.2 | 0.00 | 0.01 | 0.01 | 80 | 1012.5 |
| 20260508123038 | 50 | 228 | 1.7 | 3.5 | 0.00 | 0.01 | 0.01 | 81 | 1012.6 |
| 20260508121541 | 50 | 245 | 1.7 | 3.5 | 0.00 | 0.01 | 0.01 | 81 | 1012.7 |
| 20260508120042 | 49 | 260 | 2.6 | 6.1 | 0.00 | 0.01 | 0.01 | 81 | 1012.5 |
| 20260508114547 | 49 | 215 | 2.6 | 7.0 | 0.00 | 0.01 | 0.01 | 81 | 1012.4 |
| 20260508113045 | 50 | 221 | 3.5 | 9.6 | 0.01 | 0.01 | 0.01 | 80 | 1012.1 |
| 20260508111542 | 50 | 242 | 5.2 | 9.6 | 0.01 | 0.01 | 0.01 | 78 | 1012.1 |
| 20260508110037 | 50 | 236 | 6.1 | 10.4 | 0.01 | 0.01 | 0.01 | 78 | 1012.1 |
| 20260508104542 | 51 | 212 | 7.8 | 13.9 | 0.01 | 0.01 | 0.01 | 73 | 1011.8 |
| 20260508103041 | 51 | 221 | 6.1 | 10.4 | 0.00 | 0.00 | 0.00 | 69 | 1012.0 |
| 20260508101538 | 51 | 256 | 4.3 | 8.7 | 0.00 | 0.00 | 0.00 | 71 | 1012.0 |
| 20260508100039 | 51 | 242 | 3.5 | 11.3 | 0.00 | 0.00 | 0.00 | 72 | 1011.9 |
| 20260508094553 | 52 | 226 | 6.1 | 9.6 | 0.00 | 0.00 | 0.00 | 70 | 1011.9 |
| 20260508093036 | 52 | 243 | 5.2 | 14.8 | 0.00 | 0.00 | 0.00 | 69 | 1012.1 |
| 20260508091542 | 52 | 137 | 6.1 | 12.2 | 0.00 | 0.00 | 0.00 | 67 | 1012.3 |
| 20260508090047 | 52 | 253 | 2.6 | 10.4 | 0.00 | 0.00 | 0.00 | 67 | 1012.5 |
| 20260508084537 | 52 | 262 | 3.5 | 9.6 | 0.00 | 0.00 | 0.00 | 70 | 1012.1 |
| 20260508083038 | 51 | 244 | 3.5 | 8.7 | 0.00 | 0.00 | 0.00 | 73 | 1011.9 |
| 20260508081557 | 51 | 241 | 5.2 | 10.4 | 0.00 | 0.00 | 0.00 | 73 | 1011.9 |
| 20260508080041 | 51 | 220 | 4.3 | 11.3 | 0.00 | 0.00 | 0.00 | 71 | 1011.9 |
| 20260508074540 | 51 | 231 | 6.1 | 13.0 | 0.00 | 0.00 | 0.00 | 70 | 1012.0 |
| 20260508073042 | 51 | 226 | 5.2 | 11.3 | 0.00 | 0.00 | 0.00 | 70 | 1012.3 |
| 20260508071544 | 51 | 212 | 6.1 | 11.3 | 0.00 | 0.00 | 0.00 | 70 | 1012.2 |
| 20260508070037 | 50 | 206 | 4.3 | 10.4 | 0.00 | 0.00 | 0.00 | 71 | 1012.3 |
| 20260508064542 | 50 | 200 | 5.2 | 8.7 | 0.00 | 0.00 | 0.00 | 72 | 1012.4 |
| 20260508063052 | 49 | 233 | 3.5 | 8.7 | 0.00 | 0.00 | 0.00 | 75 | 1012.4 |
| 20260508061541 | 48 | 219 | 2.6 | 5.2 | 0.00 | 0.00 | 0.00 | 79 | 1012.3 |
| 20260508060039 | 47 | 210 | 1.7 | 3.5 | 0.00 | 0.00 | 0.00 | 79 | 1012.5 |
| 20260508054539 | 48 | 207 | 0.9 | 2.6 | 0.00 | 0.00 | 0.00 | 80 | 1012.6 |